Terug naar catalogus

FENGYUN 4A

ActiefWeerGEO
NORAD 41882·PAYLOAD·🇨🇳 China

Gelanceerd Dec 10, 2016 vanaf Xichang Satellite Launch Center

Loading…

TLE

VersSource: Space-Track

Epoch: Sep 14, 2026, 21:13 UTC

1 41882U 16077A   26257.88464725 -.00000365  00000-0  00000-0 0  9995
2 41882   2.5444  79.1446 0008023 166.8208 189.5118  1.00267825 35821

Volg FENGYUN 4A in realtime met AllMySat

Download on the App Store